Cheraw, SC

8:40 PM EST on February 10, 2016 (GMT -0500)
Cheraw

Weather History for KCQW - November, 2013

Change the Weather History Date:

Thursday, November 7, 2013

  Actual Average (KFLO) Record (KFLO)
Temperature  
Mean Temperature 60 °F 58 °F  
Max Temperature 71 °F 70 °F 81 °F (1975)
Min Temperature 46 °F 46 °F 26 °F (1967)
Degree Days  
Heating Degree Days 6 8  
Month to date heating degree days 51  
Since 1 July heating degree days 168  
Cooling Degree Days 0 1  
Month to date cooling degree days 7  
Year to date cooling degree days 2049  
Growing Degree Days 10 (Base 50)    
Moisture  
Dew Point 54 °F    
Average Humidity 80    
Maximum Humidity 100    
Minimum Humidity 44    
Precipitation  
Precipitation 0.00 in 0.09 in 1.59 in (2006)
Month to date precipitation 0.62  
Year to date precipitation 37.85  
Sea Level Pressure  
Sea Level Pressure 30.03 in    
Wind  
Wind Speed - (North)    
Max Wind Speed -    
Max Gust Speed -    
Visibility 7 miles    
Events Fog , Rain    
T = Trace of Precipitation, MM = Missing Value Source: NWS Daily Summary

Daily Weather History Graph

Daily Weather History Graph

Search for Another Location

Airport or City:

Trip Planner

Search our weather history database for the weather conditions in past years. The results will help you decide how hot, cold, wet, or windy it might be!

Date:

Astronomy

Nov. 07, 2013 Rise Set
Actual Time 6:46 AM EST 5:20 PM EST
Civil Twilight 6:19 AM EST 5:46 PM EST
Nautical Twilight 5:49 AM EST 6:16 PM EST
Astronomical Twilight 5:20 AM EST 6:46 PM EST
Moon 10:51 AM EST (11/7) 9:31 PM EST (11/7)
Length of Visible Light 11h 26m
Length of Day
10h 34m
Waxing Crescent, 22% of the Moon is Illuminated
Nov 7
Waxing Crescent
Nov 10
First Quarter
Nov 17
Full
Nov 25
Last Quarter
Dec 2
New

Hourly Weather History & Observations

Time (EST) Temp. Dew Point Humidity Pressure Visibility Wind Dir Wind Speed Gust Speed Precip Events Conditions
12:15 AM 57.2 °F 57.2 °F 100% 30.12 in 7.0 mi North - - N/A Rain Light Rain
12:35 AM 57.2 °F 57.2 °F 100% 30.11 in 7.0 mi North - - N/A   Mostly Cloudy
12:55 AM 59.0 °F 59.0 °F 100% 30.10 in 7.0 mi North - - N/A   Mostly Cloudy
1:15 AM 57.2 °F 57.2 °F 100% 30.10 in 7.0 mi North - - N/A   Mostly Cloudy
1:35 AM 57.2 °F 57.2 °F 100% 30.08 in 6.0 mi North - - N/A   Mostly Cloudy
1:55 AM 57.2 °F 57.2 °F 100% 30.08 in 7.0 mi North - - N/A   Overcast
2:15 AM 59.0 °F 59.0 °F 100% 30.08 in 7.0 mi North - - N/A   Overcast
2:55 AM 59.0 °F 59.0 °F 100% 30.06 in 7.0 mi North - - N/A   Overcast
3:15 AM 59.0 °F 59.0 °F 100% 30.05 in 7.0 mi North - - N/A   Overcast
3:35 AM 59.0 °F 59.0 °F 100% 30.04 in 5.0 mi North - - N/A   Overcast
3:55 AM 59.0 °F 59.0 °F 100% 30.03 in 6.0 mi North - - N/A   Overcast
4:15 AM 59.0 °F 59.0 °F 100% 30.03 in 5.0 mi North - - N/A   Overcast
4:35 AM 59.0 °F 59.0 °F 100% 30.03 in 1.0 mi North - - N/A   Overcast
4:55 AM 59.0 °F 59.0 °F 100% 30.03 in 0.2 mi North - - N/A Fog Fog
5:15 AM 59.0 °F 59.0 °F 100% 30.02 in 0.2 mi North - - N/A Fog Fog
5:35 AM 57.2 °F 57.2 °F 100% 30.02 in 0.2 mi North - - N/A Fog Fog
5:55 AM 57.2 °F 57.2 °F 100% 30.02 in 0.2 mi North - - N/A Fog Fog
6:15 AM 57.2 °F 57.2 °F 100% 30.01 in 0.2 mi North - - N/A Fog Fog
6:35 AM 57.2 °F 57.2 °F 100% 30.02 in 0.2 mi North - - N/A Fog Fog
6:55 AM 57.2 °F 57.2 °F 100% 30.02 in 0.2 mi North - - N/A Fog Fog
7:15 AM 57.2 °F 57.2 °F 100% 30.02 in 0.2 mi North - - N/A Fog Fog
7:35 AM 57.2 °F 57.2 °F 100% 30.02 in 0.2 mi North - - N/A Fog Fog
7:55 AM 57.2 °F 57.2 °F 100% 30.02 in 0.5 mi North - - N/A Fog Fog
8:15 AM 57.2 °F 57.2 °F 100% 30.03 in 0.5 mi North - - N/A Fog Fog
8:35 AM 57.2 °F 57.2 °F 100% 30.03 in 2.0 mi North - - N/A   Mostly Cloudy
8:55 AM 59.0 °F 59.0 °F 100% 30.04 in 3.0 mi North - - N/A   Clear
9:15 AM 59.0 °F 59.0 °F 100% 30.03 in 5.0 mi North - - N/A   Clear
9:35 AM 59.0 °F 59.0 °F 100% 30.03 in 5.0 mi North - - N/A   Clear
9:55 AM 62.6 °F 59.0 °F 88% 30.03 in 7.0 mi North - - N/A   Clear
10:15 AM 66.2 °F 59.0 °F 78% 30.02 in 7.0 mi North - - N/A   Clear
10:35 AM 68.0 °F 59.0 °F 73% 30.01 in 7.0 mi North - - N/A   Partly Cloudy
10:55 AM 68.0 °F 59.0 °F 73% 30.01 in 7.0 mi North - - N/A   Scattered Clouds
11:15 AM 71.6 °F 59.0 °F 64% 29.99 in 8.0 mi North - - N/A   Scattered Clouds
11:35 AM 71.6 °F 59.0 °F 64% 29.99 in 8.0 mi North - - N/A   Partly Cloudy
11:55 AM 71.6 °F 59.0 °F 64% 29.98 in 10.0 mi North - - N/A   Partly Cloudy
12:15 PM 71.6 °F 59.0 °F 64% 29.97 in 10.0 mi North - - N/A   Mostly Cloudy
12:35 PM 71.6 °F 59.0 °F 64% 29.96 in 10.0 mi North - - N/A   Mostly Cloudy
12:55 PM 69.8 °F 59.0 °F 68% 29.95 in 10.0 mi North - - N/A   Mostly Cloudy
1:15 PM 69.8 °F 59.0 °F 68% 29.95 in 10.0 mi North - - N/A   Mostly Cloudy
1:35 PM 68.0 °F 60.8 °F 78% 29.94 in 10.0 mi North - - N/A   Overcast
1:55 PM 68.0 °F 60.8 °F 78% 29.94 in 10.0 mi North - - N/A   Overcast
2:15 PM 68.0 °F 60.8 °F 78% 29.94 in 10.0 mi North - - N/A   Overcast
2:35 PM 68.0 °F 60.8 °F 78% 29.94 in 10.0 mi North - - N/A   Overcast
2:55 PM 69.8 °F 60.8 °F 73% 29.94 in 10.0 mi North - - N/A   Overcast
3:15 PM 68.0 °F 60.8 °F 78% 29.94 in 10.0 mi North - - N/A   Overcast
3:35 PM 68.0 °F 60.8 °F 78% 29.94 in 10.0 mi North - - N/A   Overcast
3:55 PM 68.0 °F 60.8 °F 78% 29.95 in 10.0 mi North - - N/A   Mostly Cloudy
4:15 PM 68.0 °F 59.0 °F 73% 29.95 in 10.0 mi North - - N/A   Scattered Clouds
4:35 PM 68.0 °F 59.0 °F 73% 29.95 in 10.0 mi North - - N/A   Clear
4:55 PM 66.2 °F 59.0 °F 78% 29.96 in 10.0 mi North - - N/A   Clear
5:15 PM 66.2 °F 59.0 °F 78% 29.97 in 10.0 mi North - - N/A   Clear
5:55 PM 62.6 °F 57.2 °F 82% 29.99 in 9.0 mi North - - N/A   Partly Cloudy
6:15 PM 62.6 °F 57.2 °F 82% 30.00 in 10.0 mi North - - N/A   Partly Cloudy
6:35 PM 60.8 °F 57.2 °F 88% 30.01 in 9.0 mi North - - N/A   Partly Cloudy
6:55 PM 60.8 °F 55.4 °F 82% 30.02 in 10.0 mi North - - N/A   Clear
7:15 PM 59.0 °F 55.4 °F 88% 30.04 in 10.0 mi North - - N/A   Clear
7:35 PM 59.0 °F 50.0 °F 72% 30.04 in 10.0 mi North - - N/A   Clear
7:55 PM 57.2 °F 35.6 °F 44% 30.06 in 10.0 mi North - - N/A   Clear
8:15 PM 57.2 °F 35.6 °F 44% 30.07 in 10.0 mi North - - N/A   Clear
8:35 PM 55.4 °F 35.6 °F 47% 30.08 in 10.0 mi North - - N/A   Clear
8:55 PM 53.6 °F 33.8 °F 47% 30.08 in 10.0 mi North - - N/A   Clear
9:15 PM 53.6 °F 33.8 °F 47% 30.09 in 10.0 mi North - - N/A   Clear
9:35 PM 53.6 °F 32.0 °F 44% 30.09 in 10.0 mi North - - N/A   Clear
9:55 PM 50.0 °F 32.0 °F 50% 30.10 in 10.0 mi North - - N/A   Clear
10:15 PM 50.0 °F 32.0 °F 50% 30.10 in 10.0 mi North - - N/A   Clear
10:35 PM 50.0 °F 32.0 °F 50% 30.10 in 10.0 mi North - - N/A   Clear
10:55 PM 48.2 °F 32.0 °F 54% 30.11 in 10.0 mi North - - N/A   Clear
11:15 PM 48.2 °F 32.0 °F 54% 30.11 in 10.0 mi North - - N/A   Clear
11:35 PM 48.2 °F 32.0 °F 54% 30.11 in 10.0 mi North - - N/A   Clear
11:55 PM 46.4 °F 32.0 °F 57% 30.12 in 10.0 mi North - - N/A   Clear